owner,sensor,date,latitude,longitude,vertical_datum,direction_of_sea_water_velocity,sea_water_speed,upward_sea_water_velocity,qcFlag 
TABS,ioos:station:wmo:42049:1,2006-06-01T00:00:00Z,28.3507,-96.0058,2.0,233.3789515,20.23419136,-99999.0,'11111222,11111222,99999999' 
TABS,ioos:station:wmo:42049:1,2006-06-01T00:30:00Z,28.3507,-96.0058,2.0,213.2334423,16.3669484,-99999.0,'11111222,11111222,99999999' 
TABS,ioos:station:wmo:42049:1,2006-06-01T01:00:00Z,28.3507,-96.0058,2.0,211.1072454,19.82015388,-99999.0,'11111222,11111222,99999999' 
TABS,ioos:station:wmo:42049:1,2006-06-01T01:30:00Z,28.3507,-96.0058,2.0,207.6587333,22.25293239,-99999.0,'11111222,11111222,99999999' 
TABS,ioos:station:wmo:42049:1,2006-06-01T02:00:00Z,28.3507,-96.0058,2.0,228.1211125,21.16682546,-99999.0,'11111222,11111222,99999999' 
TABS,ioos:station:wmo:42049:1,2006-06-01T02:30:00Z,28.3507,-96.0058,2.0,235.6675391,24.255789,-99999.0,'11111222,11111222,99999999' 
TABS,ioos:station:wmo:42049:1,2006-06-01T03:00:00Z,28.3507,-96.0058,2.0,234.5464289,28.39467908,-99999.0,'11111222,11111222,99999999' 
TABS,ioos:station:wmo:42049:1,2006-06-01T03:30:00Z,28.3507,-96.0058,2.0,238.378324,32.57658668,-99999.0,'11111222,11111222,99999999' 
TABS,ioos:station:wmo:42049:1,2006-06-01T04:00:00Z,28.3507,-96.0058,2.0,231.2236496,27.71933802,-99999.0,'11111222,11111222,99999999' 
TABS,ioos:station:wmo:42049:1,2006-06-01T04:30:00Z,28.3507,-96.0058,2.0,233.6928012,27.88334628,-99999.0,'11111222,11111222,99999999' 
TABS,ioos:station:wmo:42049:1,2006-06-01T05:00:00Z,28.3507,-96.0058,2.0,238.9166654,25.54819955,-99999.0,'11111222,11111222,99999999' 
TABS,ioos:station:wmo:42049:1,2006-06-01T05:30:00Z,28.3507,-96.0058,2.0,238.6764089,27.33398251,-99999.0,'11111222,11111222,99999999' 
TABS,ioos:station:wmo:42049:1,2006-06-01T06:00:00Z,28.3507,-96.0058,2.0,243.2781874,29.48937436,-99999.0,'11111222,11111222,99999999' 
TABS,ioos:station:wmo:42049:1,2006-06-01T06:30:00Z,28.3507,-96.0058,2.0,245.1209968,30.54450196,-99999.0,'11111222,11111222,99999999' 
TABS,ioos:station:wmo:42049:1,2006-06-01T07:00:00Z,28.3507,-96.0058,2.0,247.0274681,30.90058414,-99999.0,'11111222,11111222,99999999' 
TABS,ioos:station:wmo:42049:1,2006-06-01T07:30:00Z,28.3507,-96.0058,2.0,245.1501548,31.22055893,-99999.0,'11111222,11111222,99999999' 
TABS,ioos:station:wmo:42049:1,2006-06-01T08:00:00Z,28.3507,-96.0058,2.0,241.3120441,32.60187878,-99999.0,'11111222,11111222,99999999' 
TABS,ioos:station:wmo:42049:1,2006-06-01T08:30:00Z,28.3507,-96.0058,2.0,238.8582856,29.87519707,-99999.0,'11111222,11111222,99999999' 
TABS,ioos:station:wmo:42049:1,2006-06-01T09:00:00Z,28.3507,-96.0058,2.0,249.9367307,26.38088133,-99999.0,'11111222,11111222,99999999' 
TABS,ioos:station:wmo:42049:1,2006-06-01T09:30:00Z,28.3507,-96.0058,2.0,243.8531716,25.09829675,-99999.0,'11111222,11111222,99999999' 
TABS,ioos:station:wmo:42049:1,2006-06-01T10:00:00Z,28.3507,-96.0058,2.0,241.1492381,25.34586554,-99999.0,'11111222,11111222,99999999' 
TABS,ioos:station:wmo:42049:1,2006-06-01T10:30:00Z,28.3507,-96.0058,2.0,229.1038413,24.89743762,-99999.0,'11111222,11111222,99999999' 
TABS,ioos:station:wmo:42049:1,2006-06-01T11:00:00Z,28.3507,-96.0058,2.0,241.0944835,22.34353598,-99999.0,'11111222,11111222,99999999' 
TABS,ioos:station:wmo:42049:1,2006-06-01T11:30:00Z,28.3507,-96.0058,2.0,227.9309374,23.50670117,-99999.0,'11111222,11111222,99999999' 
TABS,ioos:station:wmo:42049:1,2006-06-01T12:00:00Z,28.3507,-96.0058,2.0,237.8309332,21.93780527,-99999.0,'11111222,11111222,99999999' 
TABS,ioos:station:wmo:42049:1,2006-06-01T12:30:00Z,28.3507,-96.0058,2.0,244.5798967,22.59774546,-99999.0,'11111222,11111222,99999999' 
TABS,ioos:station:wmo:42049:1,2006-06-01T13:00:00Z,28.3507,-96.0058,2.0,236.5288582,23.91607409,-99999.0,'11111222,11111222,99999999' 
TABS,ioos:station:wmo:42049:1,2006-06-01T13:30:00Z,28.3507,-96.0058,2.0,255.0922949,22.97320396,-99999.0,'11111222,11111222,99999999' 
TABS,ioos:station:wmo:42049:1,2006-06-01T14:00:00Z,28.3507,-96.0058,2.0,251.4989674,27.57507933,-99999.0,'11111222,11111222,99999999' 
TABS,ioos:station:wmo:42049:1,2006-06-01T14:30:00Z,28.3507,-96.0058,2.0,255.1405732,26.51672868,-99999.0,'11111222,11111222,99999999' 
TABS,ioos:station:wmo:42049:1,2006-06-01T15:00:00Z,28.3507,-96.0058,2.0,258.996064,28.23916606,-99999.0,'11111222,11111222,99999999' 
TABS,ioos:station:wmo:42049:1,2006-06-01T15:30:00Z,28.3507,-96.0058,2.0,259.5396944,26.43936459,-99999.0,'11111222,11111222,99999999' 
TABS,ioos:station:wmo:42049:1,2006-06-01T16:00:00Z,28.3507,-96.0058,2.0,264.8104536,29.41053723,-99999.0,'11111222,11111222,99999999' 
TABS,ioos:station:wmo:42049:1,2006-06-01T16:30:00Z,28.3507,-96.0058,2.0,264.874025,27.87144955,-99999.0,'11111222,11111222,99999999' 
TABS,ioos:station:wmo:42049:1,2006-06-01T17:00:00Z,28.3507,-96.0058,2.0,260.3996272,23.26581183,-99999.0,'11111222,11111222,99999999' 
TABS,ioos:station:wmo:42049:1,2006-06-01T17:30:00Z,28.3507,-96.0058,2.0,262.5951177,25.68417801,-99999.0,'11111222,11111222,99999999' 
TABS,ioos:station:wmo:42049:1,2006-06-01T18:00:00Z,28.3507,-96.0058,2.0,255.7947723,25.55123872,-99999.0,'11111222,11111222,99999999' 
TABS,ioos:station:wmo:42049:1,2006-06-01T18:30:00Z,28.3507,-96.0058,2.0,247.7746006,23.10670249,-99999.0,'11111222,11111222,99999999' 
TABS,ioos:station:wmo:42049:1,2006-06-01T19:00:00Z,28.3507,-96.0058,2.0,246.0094641,18.91387057,-99999.0,'11111222,11111222,99999999' 
TABS,ioos:station:wmo:42049:1,2006-06-01T19:30:00Z,28.3507,-96.0058,2.0,260.6081617,25.24841579,-99999.0,'11111222,11111222,99999999' 
TABS,ioos:station:wmo:42049:1,2006-06-01T20:00:00Z,28.3507,-96.0058,2.0,263.0593684,26.15161945,-99999.0,'11111222,11111222,99999999' 
TABS,ioos:station:wmo:42049:1,2006-06-01T20:30:00Z,28.3507,-96.0058,2.0,267.931001,23.82552623,-99999.0,'11111222,11111222,99999999' 
TABS,ioos:station:wmo:42049:1,2006-06-01T21:00:00Z,28.3507,-96.0058,2.0,269.2341818,25.45227102,-99999.0,'11111222,11111222,99999999' 
TABS,ioos:station:wmo:42049:1,2006-06-01T21:30:00Z,28.3507,-96.0058,2.0,260.5293108,23.64221859,-99999.0,'11111222,11111222,99999999' 
TABS,ioos:station:wmo:42049:1,2006-06-01T22:00:00Z,28.3507,-96.0058,2.0,265.4830828,23.87413663,-99999.0,'11111222,11111222,99999999' 
TABS,ioos:station:wmo:42049:1,2006-06-01T22:30:00Z,28.3507,-96.0058,2.0,263.4441723,21.46030988,-99999.0,'11111222,11111222,99999999' 
TABS,ioos:station:wmo:42049:1,2006-06-01T23:00:00Z,28.3507,-96.0058,2.0,260.1508141,17.30503106,-99999.0,'11111222,11111222,99999999' 
TABS,ioos:station:wmo:42049:1,2006-06-01T23:30:00Z,28.3507,-96.0058,2.0,261.8170752,13.91162464,-99999.0,'11111222,11111222,99999999' 
TABS,ioos:station:wmo:42049:1,2006-06-02T00:00:00Z,28.3507,-96.0058,2.0,266.2611438,10.5825186,-99999.0,'11111222,11111222,99999999' 
TABS,ioos:station:wmo:42049:1,2006-06-02T00:30:00Z,28.3507,-96.0058,2.0,235.4722911,12.52646798,-99999.0,'11111222,11111222,99999999' 
TABS,ioos:station:wmo:42049:1,2006-06-02T01:00:00Z,28.3507,-96.0058,2.0,227.8440848,10.11702031,-99999.0,'11111222,11111222,99999999' 
TABS,ioos:station:wmo:42049:1,2006-06-02T01:30:00Z,28.3507,-96.0058,2.0,236.2942542,10.36180004,-99999.0,'11111222,11111222,99999999' 
TABS,ioos:station:wmo:42049:1,2006-06-02T02:00:00Z,28.3507,-96.0058,2.0,241.765404,11.66828179,-99999.0,'11111222,11111222,99999999' 
TABS,ioos:station:wmo:42049:1,2006-06-02T02:30:00Z,28.3507,-96.0058,2.0,221.9736563,16.07373634,-99999.0,'11111222,11111222,99999999' 
TABS,ioos:station:wmo:42049:1,2006-06-02T03:00:00Z,28.3507,-96.0058,2.0,221.453234,16.91810864,-99999.0,'11111222,11111222,99999999' 
TABS,ioos:station:wmo:42049:1,2006-06-02T03:30:00Z,28.3507,-96.0058,2.0,222.4656548,15.03364892,-99999.0,'11111222,11111222,99999999' 
TABS,ioos:station:wmo:42049:1,2006-06-02T04:00:00Z,28.3507,-96.0058,2.0,232.68071,17.35253296,-99999.0,'11111222,11111222,99999999' 
TABS,ioos:station:wmo:42049:1,2006-06-02T04:30:00Z,28.3507,-96.0058,2.0,231.937091,17.67983032,-99999.0,'11111222,11111222,99999999' 
TABS,ioos:station:wmo:42049:1,2006-06-02T05:00:00Z,28.3507,-96.0058,2.0,234.2801685,22.71257801,-99999.0,'11111222,11111222,99999999' 
TABS,ioos:station:wmo:42049:1,2006-06-02T05:30:00Z,28.3507,-96.0058,2.0,231.0437623,22.36281959,-99999.0,'11111222,11111222,99999999' 
TABS,ioos:station:wmo:42049:1,2006-06-02T06:00:00Z,28.3507,-96.0058,2.0,233.8884171,20.08976107,-99999.0,'11111222,11111222,99999999' 
TABS,ioos:station:wmo:42049:1,2006-06-02T06:30:00Z,28.3507,-96.0058,2.0,235.5143018,20.38164861,-99999.0,'11111222,11111222,99999999' 
TABS,ioos:station:wmo:42049:1,2006-06-02T07:00:00Z,28.3507,-96.0058,2.0,232.6363523,19.740732,-99999.0,'11111222,11111222,99999999' 
TABS,ioos:station:wmo:42049:1,2006-06-02T07:30:00Z,28.3507,-96.0058,2.0,244.0873605,20.41215324,-99999.0,'11111222,11111222,99999999' 
TABS,ioos:station:wmo:42049:1,2006-06-02T08:00:00Z,28.3507,-96.0058,2.0,251.7647738,21.73130461,-99999.0,'11111222,11111222,99999999' 
TABS,ioos:station:wmo:42049:1,2006-06-02T08:30:00Z,28.3507,-96.0058,2.0,259.6078878,23.00737708,-99999.0,'11111222,11111222,99999999' 
TABS,ioos:station:wmo:42049:1,2006-06-02T09:00:00Z,28.3507,-96.0058,2.0,260.8814187,21.8966961,-99999.0,'11111222,11111222,99999999' 
TABS,ioos:station:wmo:42049:1,2006-06-02T09:30:00Z,28.3507,-96.0058,2.0,264.0262144,21.04426288,-99999.0,'11111222,11111222,99999999' 
TABS,ioos:station:wmo:42049:1,2006-06-02T10:00:00Z,28.3507,-96.0058,2.0,264.6273497,19.54585634,-99999.0,'11111222,11111222,99999999' 
TABS,ioos:station:wmo:42049:1,2006-06-02T10:30:00Z,28.3507,-96.0058,2.0,263.0067629,17.74197565,-99999.0,'11111222,11111222,99999999' 
TABS,ioos:station:wmo:42049:1,2006-06-02T11:00:00Z,28.3507,-96.0058,2.0,270.1416125,20.29006161,-99999.0,'11111222,11111222,99999999' 
TABS,ioos:station:wmo:42049:1,2006-06-02T11:30:00Z,28.3507,-96.0058,2.0,267.2551871,21.09419351,-99999.0,'11111222,11111222,99999999' 
TABS,ioos:station:wmo:42049:1,2006-06-02T12:00:00Z,28.3507,-96.0058,2.0,274.2692046,18.94254999,-99999.0,'11111222,11111222,99999999' 
TABS,ioos:station:wmo:42049:1,2006-06-02T12:30:00Z,28.3507,-96.0058,2.0,266.2861663,15.90338958,-99999.0,'11111222,11111222,99999999' 
TABS,ioos:station:wmo:42049:1,2006-06-02T13:00:00Z,28.3507,-96.0058,2.0,272.884582,17.09165001,-99999.0,'11111222,11111222,99999999' 
TABS,ioos:station:wmo:42049:1,2006-06-02T13:30:00Z,28.3507,-96.0058,2.0,273.8935549,15.90670613,-99999.0,'11111222,11111222,99999999' 
TABS,ioos:station:wmo:42049:1,2006-06-02T14:00:00Z,28.3507,-96.0058,2.0,281.7686823,16.91555793,-99999.0,'11111222,11111222,99999999' 
TABS,ioos:station:wmo:42049:1,2006-06-02T14:30:00Z,28.3507,-96.0058,2.0,279.4892198,17.77317642,-99999.0,'11111222,11111222,99999999' 
TABS,ioos:station:wmo:42049:1,2006-06-02T15:00:00Z,28.3507,-96.0058,2.0,281.7988471,14.72101219,-99999.0,'11111222,11111222,99999999' 
TABS,ioos:station:wmo:42049:1,2006-06-02T15:30:00Z,28.3507,-96.0058,2.0,275.4373541,16.04217255,-99999.0,'11111222,11111222,99999999' 
TABS,ioos:station:wmo:42049:1,2006-06-02T16:00:00Z,28.3507,-96.0058,2.0,279.130576,17.01558109,-99999.0,'11111222,11111222,99999999' 
TABS,ioos:station:wmo:42049:1,2006-06-02T16:30:00Z,28.3507,-96.0058,2.0,287.4675158,17.22422132,-99999.0,'11111222,11111222,99999999' 
TABS,ioos:station:wmo:42049:1,2006-06-02T17:00:00Z,28.3507,-96.0058,2.0,285.2243819,16.14664052,-99999.0,'11111222,11111222,99999999' 
TABS,ioos:station:wmo:42049:1,2006-06-02T17:30:00Z,28.3507,-96.0058,2.0,282.5425612,13.95296743,-99999.0,'11111222,11111222,99999999' 
TABS,ioos:station:wmo:42049:1,2006-06-02T18:00:00Z,28.3507,-96.0058,2.0,290.3901749,14.92514992,-99999.0,'11111222,11111222,99999999' 
TABS,ioos:station:wmo:42049:1,2006-06-02T18:30:00Z,28.3507,-96.0058,2.0,286.5937323,15.54746282,-99999.0,'11111222,11111222,99999999' 
TABS,ioos:station:wmo:42049:1,2006-06-02T19:00:00Z,28.3507,-96.0058,2.0,290.2461072,14.91126085,-99999.0,'11111222,11111222,99999999' 
TABS,ioos:station:wmo:42049:1,2006-06-02T19:30:00Z,28.3507,-96.0058,2.0,288.8565107,13.33568521,-99999.0,'11111222,11111222,99999999' 
TABS,ioos:station:wmo:42049:1,2006-06-02T20:00:00Z,28.3507,-96.0058,2.0,303.7445643,11.7374614,-99999.0,'11111222,11111222,99999999' 
TABS,ioos:station:wmo:42049:1,2006-06-02T20:30:00Z,28.3507,-96.0058,2.0,302.102556,9.408554618,-99999.0,'11133222,11111222,99999999' 
TABS,ioos:station:wmo:42049:1,2006-06-02T21:00:00Z,28.3507,-96.0058,2.0,302.0570311,7.103048641,-99999.0,'11133222,11111222,99999999' 
TABS,ioos:station:wmo:42049:1,2006-06-02T21:30:00Z,28.3507,-96.0058,2.0,314.8738354,6.406403047,-99999.0,'11133222,11111222,99999999' 
TABS,ioos:station:wmo:42049:1,2006-06-02T22:00:00Z,28.3507,-96.0058,2.0,297.3927264,4.955643248,-99999.0,'11133222,11111222,99999999' 
TABS,ioos:station:wmo:42049:1,2006-06-02T22:30:00Z,28.3507,-96.0058,2.0,319.4159271,3.673717463,-99999.0,'11133222,11111222,99999999' 
TABS,ioos:station:wmo:42049:1,2006-06-02T23:00:00Z,28.3507,-96.0058,2.0,348.5551734,3.326138903,-99999.0,'11133222,11111222,99999999' 
TABS,ioos:station:wmo:42049:1,2006-06-02T23:30:00Z,28.3507,-96.0058,2.0,10.28635759,2.744102768,-99999.0,'11133222,11111222,99999999' 
TABS,ioos:station:wmo:42049:1,2006-06-03T00:00:00Z,28.3507,-96.0058,2.0,83.15724259,1.007174265,-99999.0,'11133222,11111222,99999999' 
TABS,ioos:station:wmo:42049:1,2006-06-03T00:30:00Z,28.3507,-96.0058,2.0,27.47457784,1.972460393,-99999.0,'11133222,11111222,99999999' 
TABS,ioos:station:wmo:42049:1,2006-06-03T01:00:00Z,28.3507,-96.0058,2.0,38.24654699,3.246937018,-99999.0,'11133222,11111222,99999999' 
TABS,ioos:station:wmo:42049:1,2006-06-03T01:30:00Z,28.3507,-96.0058,2.0,58.39257167,3.816084381,-99999.0,'11133222,11111222,99999999' 
TABS,ioos:station:wmo:42049:1,2006-06-03T02:00:00Z,28.3507,-96.0058,2.0,75.4355466,3.419897659,-99999.0,'11133222,11111222,99999999' 
TABS,ioos:station:wmo:42049:1,2006-06-03T02:30:00Z,28.3507,-96.0058,2.0,78.73399867,2.559316315,-99999.0,'11133222,11111222,99999999' 
TABS,ioos:station:wmo:42049:1,2006-06-03T03:00:00Z,28.3507,-96.0058,2.0,87.64670864,4.38369707,-99999.0,'11133222,11111222,99999999' 
TABS,ioos:station:wmo:42049:1,2006-06-03T03:30:00Z,28.3507,-96.0058,2.0,129.7117352,3.912812288,-99999.0,'11133222,11111222,99999999' 
TABS,ioos:station:wmo:42049:1,2006-06-03T04:00:00Z,28.3507,-96.0058,2.0,63.9582443,2.938315844,-99999.0,'11133222,11111222,99999999' 
TABS,ioos:station:wmo:42049:1,2006-06-03T04:30:00Z,28.3507,-96.0058,2.0,129.1407206,6.511113576,-99999.0,'11133222,11111222,99999999' 
TABS,ioos:station:wmo:42049:1,2006-06-03T05:00:00Z,28.3507,-96.0058,2.0,131.8078672,7.365337738,-99999.0,'11133222,11111222,99999999' 
TABS,ioos:station:wmo:42049:1,2006-06-03T05:30:00Z,28.3507,-96.0058,2.0,158.1514802,6.798308613,-99999.0,'11133222,11111222,99999999' 
TABS,ioos:station:wmo:42049:1,2006-06-03T06:00:00Z,28.3507,-96.0058,2.0,155.8688129,6.212930066,-99999.0,'11133222,11111222,99999999' 
TABS,ioos:station:wmo:42049:1,2006-06-03T06:30:00Z,28.3507,-96.0058,2.0,164.126185,4.387299853,-99999.0,'11133222,11111222,99999999' 
TABS,ioos:station:wmo:42049:1,2006-06-03T07:00:00Z,28.3507,-96.0058,2.0,151.463446,4.940161941,-99999.0,'11133222,11111222,99999999' 
TABS,ioos:station:wmo:42049:1,2006-06-03T07:30:00Z,28.3507,-96.0058,2.0,160.186698,6.048024471,-99999.0,'11133222,11111222,99999999' 
TABS,ioos:station:wmo:42049:1,2006-06-03T08:00:00Z,28.3507,-96.0058,2.0,169.3524867,5.087592751,-99999.0,'11133222,11111222,99999999' 
TABS,ioos:station:wmo:42049:1,2006-06-03T08:30:00Z,28.3507,-96.0058,2.0,168.8420917,5.167678396,-99999.0,'11133222,11111222,99999999' 
TABS,ioos:station:wmo:42049:1,2006-06-03T09:00:00Z,28.3507,-96.0058,2.0,187.6827971,4.712303046,-99999.0,'11133222,11111222,99999999' 
TABS,ioos:station:wmo:42049:1,2006-06-03T09:30:00Z,28.3507,-96.0058,2.0,194.8583692,5.069516742,-99999.0,'11133222,11111222,99999999' 
TABS,ioos:station:wmo:42049:1,2006-06-03T10:00:00Z,28.3507,-96.0058,2.0,215.1193787,4.78023012,-99999.0,'11133222,11111222,99999999' 
TABS,ioos:station:wmo:42049:1,2006-06-03T10:30:00Z,28.3507,-96.0058,2.0,197.1468336,3.798855091,-99999.0,'11133222,11111222,99999999' 
TABS,ioos:station:wmo:42049:1,2006-06-03T11:00:00Z,28.3507,-96.0058,2.0,220.6486165,1.304837155,-99999.0,'11133222,11111222,99999999' 
TABS,ioos:station:wmo:42049:1,2006-06-03T11:30:00Z,28.3507,-96.0058,2.0,250.0165193,1.989798985,-99999.0,'11133222,11111222,99999999' 
TABS,ioos:station:wmo:42049:1,2006-06-03T12:00:00Z,28.3507,-96.0058,2.0,281.9297152,1.451344205,-99999.0,'11133222,11111222,99999999' 
TABS,ioos:station:wmo:42049:1,2006-06-03T12:30:00Z,28.3507,-96.0058,2.0,223.5001408,1.351036639,-99999.0,'11133222,11111222,99999999' 
TABS,ioos:station:wmo:42049:1,2006-06-03T13:00:00Z,28.3507,-96.0058,2.0,192.590143,2.018539076,-99999.0,'11133222,11111222,99999999' 
TABS,ioos:station:wmo:42049:1,2006-06-03T13:30:00Z,28.3507,-96.0058,2.0,263.5165205,0.442831797,-99999.0,'11133222,11111222,99999999' 
TABS,ioos:station:wmo:42049:1,2006-06-03T14:00:00Z,28.3507,-96.0058,2.0,232.8716809,2.220022522,-99999.0,'11133222,11111222,99999999' 
TABS,ioos:station:wmo:42049:1,2006-06-03T14:30:00Z,28.3507,-96.0058,2.0,262.9070783,2.186732723,-99999.0,'11133222,11111222,99999999' 
TABS,ioos:station:wmo:42049:1,2006-06-03T15:00:00Z,28.3507,-96.0058,2.0,237.2855717,1.628281302,-99999.0,'11133222,11111222,99999999' 
TABS,ioos:station:wmo:42049:1,2006-06-03T15:30:00Z,28.3507,-96.0058,2.0,265.3866957,4.103291362,-99999.0,'11133222,11111222,99999999' 
TABS,ioos:station:wmo:42049:1,2006-06-03T16:00:00Z,28.3507,-96.0058,2.0,254.672697,4.199357094,-99999.0,'11133222,11111222,99999999' 
TABS,ioos:station:wmo:42049:1,2006-06-03T16:30:00Z,28.3507,-96.0058,2.0,330.8459352,6.137564664,-99999.0,'11133222,11111222,99999999' 
TABS,ioos:station:wmo:42049:1,2006-06-03T17:00:00Z,28.3507,-96.0058,2.0,336.0287218,6.424095267,-99999.0,'11133222,11111222,99999999' 
TABS,ioos:station:wmo:42049:1,2006-06-03T17:30:00Z,28.3507,-96.0058,2.0,347.1574864,5.938560432,-99999.0,'11133222,11111222,99999999' 
TABS,ioos:station:wmo:42049:1,2006-06-03T18:00:00Z,28.3507,-96.0058,2.0,323.3609122,4.474036209,-99999.0,'11133222,11111222,99999999' 
TABS,ioos:station:wmo:42049:1,2006-06-03T18:30:00Z,28.3507,-96.0058,2.0,330.5692906,7.244977571,-99999.0,'11133222,11111222,99999999' 
TABS,ioos:station:wmo:42049:1,2006-06-03T19:00:00Z,28.3507,-96.0058,2.0,331.9823824,6.173532214,-99999.0,'11133222,11111222,99999999' 
TABS,ioos:station:wmo:42049:1,2006-06-03T19:30:00Z,28.3507,-96.0058,2.0,331.8408459,6.590007587,-99999.0,'11133222,11111222,99999999' 
TABS,ioos:station:wmo:42049:1,2006-06-03T20:00:00Z,28.3507,-96.0058,2.0,341.7029241,7.899392382,-99999.0,'11133222,11111222,99999999' 
TABS,ioos:station:wmo:42049:1,2006-06-03T20:30:00Z,28.3507,-96.0058,2.0,2.066350082,8.875770389,-99999.0,'11133222,11111222,99999999' 
TABS,ioos:station:wmo:42049:1,2006-06-03T21:00:00Z,28.3507,-96.0058,2.0,5.799878455,9.599135378,-99999.0,'11133222,11111222,99999999' 
TABS,ioos:station:wmo:42049:1,2006-06-03T21:30:00Z,28.3507,-96.0058,2.0,10.52325472,10.56773391,-99999.0,'11111222,11111222,99999999' 
TABS,ioos:station:wmo:42049:1,2006-06-03T22:00:00Z,28.3507,-96.0058,2.0,2.38614891,9.848537963,-99999.0,'11133222,11111222,99999999' 
TABS,ioos:station:wmo:42049:1,2006-06-03T22:30:00Z,28.3507,-96.0058,2.0,14.0364211,9.68929822,-99999.0,'11133222,11111222,99999999' 
TABS,ioos:station:wmo:42049:1,2006-06-03T23:00:00Z,28.3507,-96.0058,2.0,9.684339917,11.88942387,-99999.0,'11111222,11111222,99999999' 
TABS,ioos:station:wmo:42049:1,2006-06-03T23:30:00Z,28.3507,-96.0058,2.0,11.81740459,15.28392947,-99999.0,'11111222,11111222,99999999' 
TABS,ioos:station:wmo:42049:1,2006-06-04T00:00:00Z,28.3507,-96.0058,2.0,13.594306,15.40147071,-99999.0,'11111222,11111222,99999999' 
TABS,ioos:station:wmo:42049:1,2006-06-04T00:30:00Z,28.3507,-96.0058,2.0,12.51838249,17.5778753,-99999.0,'11111222,11111222,99999999' 
TABS,ioos:station:wmo:42049:1,2006-06-04T01:00:00Z,28.3507,-96.0058,2.0,15.51768142,18.57716071,-99999.0,'11111222,11111222,99999999' 
TABS,ioos:station:wmo:42049:1,2006-06-04T01:30:00Z,28.3507,-96.0058,2.0,13.34079816,20.97602679,-99999.0,'11111222,11111222,99999999' 
TABS,ioos:station:wmo:42049:1,2006-06-04T02:00:00Z,28.3507,-96.0058,2.0,17.69346639,19.5445133,-99999.0,'11111222,11111222,99999999' 
TABS,ioos:station:wmo:42049:1,2006-06-04T02:30:00Z,28.3507,-96.0058,2.0,21.86347671,20.6233363,-99999.0,'11111222,11111222,99999999' 
TABS,ioos:station:wmo:42049:1,2006-06-04T03:00:00Z,28.3507,-96.0058,2.0,20.66768872,23.45977195,-99999.0,'11111222,11111222,99999999' 
TABS,ioos:station:wmo:42049:1,2006-06-04T03:30:00Z,28.3507,-96.0058,2.0,25.10021139,24.13953604,-99999.0,'11111222,11111222,99999999' 
TABS,ioos:station:wmo:42049:1,2006-06-04T04:00:00Z,28.3507,-96.0058,2.0,36.41968642,21.37466023,-99999.0,'11111222,11111222,99999999' 
TABS,ioos:station:wmo:42049:1,2006-06-04T04:30:00Z,28.3507,-96.0058,2.0,40.64209105,18.33171296,-99999.0,'11111222,11111222,99999999' 
TABS,ioos:station:wmo:42049:1,2006-06-04T05:00:00Z,28.3507,-96.0058,2.0,51.33493242,16.72620997,-99999.0,'11111222,11111222,99999999' 
TABS,ioos:station:wmo:42049:1,2006-06-04T05:30:00Z,28.3507,-96.0058,2.0,52.30835263,16.45369259,-99999.0,'11111222,11111222,99999999' 
TABS,ioos:station:wmo:42049:1,2006-06-04T06:00:00Z,28.3507,-96.0058,2.0,55.07373448,17.86827916,-99999.0,'11111222,11111222,99999999' 
TABS,ioos:station:wmo:42049:1,2006-06-04T06:30:00Z,28.3507,-96.0058,2.0,62.09761236,17.24478182,-99999.0,'11111222,11111222,99999999' 
TABS,ioos:station:wmo:42049:1,2006-06-04T07:00:00Z,28.3507,-96.0058,2.0,67.58073376,16.70241001,-99999.0,'11111222,11111222,99999999' 
TABS,ioos:station:wmo:42049:1,2006-06-04T07:30:00Z,28.3507,-96.0058,2.0,75.32073322,13.6143821,-99999.0,'11111222,11111222,99999999' 
TABS,ioos:station:wmo:42049:1,2006-06-04T08:00:00Z,28.3507,-96.0058,2.0,80.32204898,15.28757011,-99999.0,'11111222,11111222,99999999' 
TABS,ioos:station:wmo:42049:1,2006-06-04T08:30:00Z,28.3507,-96.0058,2.0,84.7312611,15.35487545,-99999.0,'11111222,11111222,99999999' 
TABS,ioos:station:wmo:42049:1,2006-06-04T09:00:00Z,28.3507,-96.0058,2.0,82.52628221,12.83907318,-99999.0,'11111222,11111222,99999999' 
TABS,ioos:station:wmo:42049:1,2006-06-04T09:30:00Z,28.3507,-96.0058,2.0,87.58389536,11.86054383,-99999.0,'11111222,11111222,99999999' 
TABS,ioos:station:wmo:42049:1,2006-06-04T10:00:00Z,28.3507,-96.0058,2.0,81.94818935,12.42246352,-99999.0,'11111222,11111222,99999999' 
TABS,ioos:station:wmo:42049:1,2006-06-04T10:30:00Z,28.3507,-96.0058,2.0,86.42367399,11.22185368,-99999.0,'11111222,11111222,99999999' 
TABS,ioos:station:wmo:42049:1,2006-06-04T11:00:00Z,28.3507,-96.0058,2.0,89.14062977,10.00112494,-99999.0,'11111222,11111222,99999999' 
TABS,ioos:station:wmo:42049:1,2006-06-04T11:30:00Z,28.3507,-96.0058,2.0,89.78700602,10.76007435,-99999.0,'11111222,11111222,99999999' 
TABS,ioos:station:wmo:42049:1,2006-06-04T12:00:00Z,28.3507,-96.0058,2.0,86.08096152,9.802923033,-99999.0,'11133222,11111222,99999999' 
TABS,ioos:station:wmo:42049:1,2006-06-04T12:30:00Z,28.3507,-96.0058,2.0,88.76568405,7.89183122,-99999.0,'11133222,11111222,99999999' 
TABS,ioos:station:wmo:42049:1,2006-06-04T13:00:00Z,28.3507,-96.0058,2.0,86.91947643,8.001562347,-99999.0,'11133222,11111222,99999999' 
TABS,ioos:station:wmo:42049:1,2006-06-04T13:30:00Z,28.3507,-96.0058,2.0,101.0801733,7.336763592,-99999.0,'11133222,11111222,99999999' 
TABS,ioos:station:wmo:42049:1,2006-06-04T14:00:00Z,28.3507,-96.0058,2.0,85.84036743,9.374694662,-99999.0,'11133222,11111222,99999999' 
TABS,ioos:station:wmo:42049:1,2006-06-04T14:30:00Z,28.3507,-96.0058,2.0,98.75575195,9.065649453,-99999.0,'11133222,11111222,99999999' 
TABS,ioos:station:wmo:42049:1,2006-06-04T15:00:00Z,28.3507,-96.0058,2.0,104.2170247,6.148308711,-99999.0,'11133222,11111222,99999999' 
TABS,ioos:station:wmo:42049:1,2006-06-04T15:30:00Z,28.3507,-96.0058,2.0,125.9734967,6.264766556,-99999.0,'11133222,11111222,99999999' 
TABS,ioos:station:wmo:42049:1,2006-06-04T16:00:00Z,28.3507,-96.0058,2.0,110.5721368,4.15496089,-99999.0,'11133222,11111222,99999999' 